Theta_e
314 315 320 321 320 320 320 321 321 320 320 317 317 318 317 318 318 317 318 317 317 318 317 315 315 317 319 318 320 320 319 321 321 319 322 325 322 328 332 334 336 336 338 337 337 336 334 333 332 332 332 330 328 330 334 334 335 335 335 334 334 331 326 325 327 328 328 328 329 328 326 322 321 324 324 322 319 318 318 317 315 313 311 307 305 307 308 306 311 319 322 323 322 323 322 319 320
314 316 320 321 320 322 321 322 321 318 317 315 316 318 317 317 317 319 318 317 320 319 317 316 316 317 319 319 319 320 322 322 321 323 325 322 323 328 330 333 335 336 338 337 337 336 335 333 332 332 331 331 328 329 332 334 335 335 335 334 333 330 324 323 324 325 326 326 326 325 323 321 322 323 321 320 319 320 320 318 316 314 312 308 305 311 316 313 315 320 323 326 325 325 325 324 320
314 317 321 321 321 322 322 322 319 315 314 313 316 318 316 317 318 318 317 319 320 317 317 317 317 319 319 320 319 320 324 324 321 324 325 324 329 330 328 333 335 337 338 337 337 335 335 333 332 331 330 330 328 328 330 333 334 334 333 331 330 327 321 320 322 323 324 324 323 322 321 321 321 321 320 321 322 323 321 319 317 314 312 309 304 312 320 319 320 321 322 324 323 321 321 318 311
315 319 321 321 322 322 322 321 319 315 314 313 315 317 317 318 318 317 318 320 319 315 317 318 320 319 319 321 320 320 324 325 323 325 327 327 330 329 327 332 335 336 337 337 337 336 335 333 331 330 329 329 328 328 329 331 333 332 331 328 326 322 319 319 319 321 323 323 322 321 321 321 320 321 322 323 324 323 321 320 317 314 311 309 305 309 318 321 323 323 324 323 321 318 315 312 311
316 321 320 322 323 322 322 320 319 317 315 315 315 317 318 318 317 318 319 319 317 315 316 318 321 320 320 321 319 321 323 324 322 324 326 324 325 326 328 332 334 336 337 337 337 337 336 334 333 331 329 329 329 329 329 330 332 332 330 326 323 320 318 318 318 320 323 323 321 322 322 322 322 323 324 325 326 323 321 320 317 313 311 309 306 306 312 319 322 322 324 324 323 321 316 313 313
318 321 320 321 321 320 321 318 318 317 316 317 317 317 317 317 317 319 318 318 316 315 316 316 319 320 321 321 319 321 322 323 322 321 323 322 323 325 328 332 334 336 338 338 337 338 337 336 335 333 331 330 329 329 329 330 331 331 329 325 321 319 319 319 319 320 322 323 322 323 323 323 324 325 326 326 326 324 321 322 319 314 311 309 306 305 306 312 316 316 316 317 316 314 310 309 308
319 321 320 321 320 320 321 318 317 318 316 316 317 317 317 317 317 319 318 318 316 315 316 316 317 319 320 321 320 320 320 320 321 319 320 321 322 324 328 332 333 336 337 338 337 338 337 337 336 335 333 332 331 330 330 329 329 329 327 324 322 320 319 319 320 321 322 322 322 323 324 324 325 327 326 326 327 325 322 322 322 317 312 309 307 305 304 306 307 308 308 308 307 306 306 306 306
320 320 320 321 322 321 320 318 318 318 316 313 315 316 317 317 316 319 319 318 317 316 316 316 317 319 318 319 321 321 319 318 318 318 319 319 319 321 325 331 334 336 338 337 337 337 337 337 336 336 335 334 333 331 331 330 329 330 327 324 323 322 320 320 321 322 322 322 323 323 325 325 326 327 326 326 327 325 323 322 323 321 315 310 308 306 304 304 304 305 305 306 306 306 306 306 306
319 319 320 321 321 321 319 318 318 317 316 314 315 314 315 315 315 317 319 317 315 316 317 317 317 317 317 319 321 320 318 317 317 318 318 317 318 318 322 331 336 335 337 337 337 337 338 338 337 337 336 336 335 333 333 331 330 330 329 326 325 324 322 321 322 322 323 323 324 324 325 326 327 327 327 326 327 326 323 323 324 323 318 312 309 307 305 304 304 304 304 304 305 305 305 305 305
319 319 321 322 320 319 317 317 318 317 316 315 315 314 314 314 314 315 317 317 315 316 317 317 317 315 317 320 320 318 317 316 316 317 317 317 318 318 320 331 337 335 336 337 337 337 338 339 338 337 336 336 336 335 334 332 331 330 330 329 328 327 325 323 323 323 323 324 324 325 325 325 326 326 326 326 326 326 324 323 323 324 321 316 312 309 307 305 304 304 304 304 303 304 304 304 304
320 319 320 321 318 317 316 317 318 317 316 315 315 314 314 314 313 314 315 315 314 316 317 317 317 316 317 320 320 317 315 315 316 316 316 317 318 319 320 329 337 335 335 336 336 337 338 339 339 338 338 337 336 336 335 334 332 330 331 331 330 330 328 325 324 324 324 325 324 325 325 325 326 326 326 325 325 325 324 323 323 324 322 319 315 312 311 310 309 309 308 308 307 308 308 309 308
321 321 320 320 318 317 317 318 318 318 316 315 316 314 314 314 314 314 314 315 315 316 317 317 317 317 318 319 319 316 315 315 315 316 316 316 318 320 320 326 335 335 335 336 335 336 337 339 339 339 338 337 337 336 336 335 334 332 332 331 331 331 330 327 325 325 325 325 325 325 326 326 326 326 326 326 325 324 323 323 323 324 323 320 318 316 316 315 315 316 315 315 315 316 316 316 315
321 323 321 319 318 319 319 318 317 318 317 316 316 314 314 313 314 315 315 315 315 316 317 317 316 316 318 318 317 316 315 315 315 315 316 316 317 320 320 323 331 333 334 335 334 334 335 337 338 338 338 337 337 337 336 335 335 334 333 332 332 332 331 330 328 327 326 325 325 325 325 325 325 326 326 326 326 325 324 323 323 324 323 322 319 318 318 319 319 319 320 320 320 320 320 320 319
320 321 321 319 316 318 318 318 316 317 317 316 315 313 313 313 314 315 314 315 316 317 316 316 315 316 317 317 317 316 316 315 314 315 315 316 316 318 319 321 325 329 333 334 333 334 334 335 335 336 337 337 336 336 336 336 336 335 333 333 333 332 332 332 329 329 328 326 325 324 324 324 325 325 325 326 326 325 325 325 324 324 324 323 321 319 319 320 321 321 321 321 321 321 321 320 320
318 319 321 320 317 317 317 318 318 317 317 316 314 312 312 313 313 313 314 315 315 315 315 315 315 316 317 317 317 316 315 315 315 314 314 316 317 318 319 320 321 326 331 333 332 333 333 332 334 337 337 337 337 336 336 337 337 336 334 334 333 333 332 332 331 330 329 328 326 325 324 324 325 324 324 325 325 325 326 326 325 324 324 324 323 321 320 320 321 321 321 321 321 321 321 321 320
317 319 322 320 318 317 317 317 317 317 317 316 314 312 313 313 313 313 313 314 314 314 314 315 315 316 316 316 316 316 315 315 315 314 314 315 316 318 319 320 320 323 329 332 332 333 333 332 333 337 337 337 338 336 337 336 337 336 335 335 334 334 333 332 332 330 330 329 328 326 325 324 325 324 324 324 324 325 326 327 326 325 324 324 324 323 321 320 321 321 321 321 321 321 321 321 320
317 319 320 319 318 318 317 317 317 317 317 315 312 312 315 315 313 313 314 313 314 314 314 315 315 315 315 315 315 315 315 315 315 314 314 314 315 317 319 320 321 321 323 328 330 331 332 332 332 334 335 338 338 337 336 335 336 336 336 335 334 334 333 333 332 331 330 329 329 328 326 325 326 326 325 326 325 325 325 326 327 325 325 325 325 324 323 321 321 321 321 322 322 322 322 321 320
317 320 319 317 318 318 318 318 317 317 317 315 313 313 315 315 313 313 314 314 313 314 314 314 315 315 315 315 315 314 315 315 315 315 314 314 314 316 317 318 321 319 316 321 328 329 331 332 331 332 334 337 338 337 335 335 335 334 335 335 335 335 333 333 332 332 331 330 329 329 328 326 326 327 327 326 326 327 326 326 327 326 326 326 325 325 324 323 322 322 322 322 322 322 322 321 321
317 319 317 317 319 317 317 318 316 316 317 316 313 312 315 315 314 314 315 315 314 314 315 314 314 315 315 315 315 315 315 315 315 315 314 314 313 314 315 316 318 317 313 316 322 324 325 328 330 331 333 335 335 335 335 337 337 333 334 335 335 335 334 334 333 333 333 331 330 330 329 328 327 327 327 326 326 327 326 327 327 327 326 326 326 325 324 323 322 322 322 322 322 322 322 321 321
316 316 316 318 319 316 314 315 315 315 315 315 314 312 313 314 314 314 315 316 315 315 316 315 315 315 315 315 315 315 315 315 315 315 315 314 314 314 314 314 314 314 314 315 316 317 317 320 326 329 329 329 330 331 333 337 336 334 334 334 335 335 334 334 334 334 333 332 331 331 330 329 329 327 326 326 326 327 326 326 328 327 327 327 326 325 324 324 323 323 323 323 322 322 322 322 321
315 315 316 316 315 316 314 313 313 313 314 314 314 312 313 314 313 314 315 315 316 316 317 316 316 316 316 316 315 315 315 315 315 315 315 314 314 314 314 314 314 313 314 315 315 316 316 316 318 322 322 321 322 324 328 332 333 333 333 333 334 334 334 334 334 334 333 333 332 332 331 329 329 328 328 327 326 327 326 327 328 328 328 327 326 325 324 324 324 324 323 323 323 323 322 322 321
315 314 314 313 313 316 314 312 312 313 313 314 313 313 314 314 313 314 315 316 317 317 317 316 316 316 316 316 315 315 315 315 315 315 315 314 314 314 314 313 314 314 314 315 315 315 316 316 317 317 318 319 321 322 322 325 326 328 331 333 333 334 335 334 333 334 333 333 333 332 331 330 329 327 329 328 327 327 328 328 328 328 328 328 326 325 325 325 325 324 324 325 324 323 323 323 322
316 314 312 312 312 315 313 312 313 312 313 313 314 314 314 314 314 314 314 316 317 317 316 316 316 316 316 316 315 315 315 315 315 315 315 315 315 314 314 313 313 313 314 314 314 314 314 316 318 318 319 320 322 323 323 324 322 323 327 328 329 331 332 331 331 332 333 333 333 333 331 330 329 328 328 328 329 329 329 330 328 328 328 328 327 326 326 326 325 325 325 326 325 324 323 323 322
316 316 313 312 311 313 313 312 312 312 313 313 313 314 313 314 315 313 313 315 316 316 316 315 316 316 316 316 315 315 315 315 315 315 315 315 315 314 314 313 313 313 313 313 313 313 313 314 316 317 319 320 321 323 324 325 324 326 330 328 326 326 328 331 331 332 332 332 332 332 332 331 330 330 330 328 328 330 330 330 329 329 329 328 327 327 327 326 326 326 326 326 325 324 323 323 321
316 315 313 312 311 312 312 312 312 312 312 312 312 314 314 313 313 312 314 315 315 315 316 315 315 315 316 316 316 316 315 315 315 315 315 315 315 314 314 313 313 313 313 313 313 313 313 313 314 315 316 316 318 319 320 323 321 324 333 336 333 328 329 335 335 333 332 331 332 332 332 332 331 330 331 329 329 330 330 330 330 330 329 329 328 328 327 327 326 326 326 325 325 324 324 323 321
315 314 313 314 313 312 313 312 312 312 312 312 313 314 313 312 312 314 316 316 316 316 315 315 315 315 316 316 316 316 315 315 315 315 315 315 315 315 314 314 314 314 314 313 313 313 313 313 313 313 314 314 315 315 316 320 319 320 329 335 335 334 332 331 333 334 333 330 329 331 331 331 331 331 331 330 330 330 330 330 330 330 330 329 328 328 327 326 325 326 326 325 325 324 324 323 321
313 313 314 315 314 313 313 313 312 312 313 312 314 315 313 312 312 316 317 316 316 316 316 315 316 316 316 316 316 316 315 315 315 315 315 315 315 315 315 315 314 315 314 313 313 313 313 313 313 313 313 313 313 314 315 318 319 318 322 327 331 336 333 329 331 334 333 328 324 327 330 330 330 331 331 331 330 330 330 330 330 330 330 329 328 328 327 326 324 325 326 325 324 324 324 323 320
313 314 315 315 315 314 314 314 313 313 314 312 314 315 313 312 312 316 317 316 316 316 316 316 316 316 316 316 315 315 315 315 315 315 315 315 315 315 315 315 315 314 314 313 313 313 313 313 313 313 313 313 313 313 314 314 316 317 317 320 325 332 333 330 331 332 329 326 325 327 328 327 328 328 329 330 330 330 330 330 330 330 330 329 328 328 328 326 324 325 325 324 324 323 323 321 319
314 314 316 316 316 316 314 314 313 314 315 313 313 315 315 314 314 317 317 316 316 316 316 316 316 316 316 316 316 316 316 315 315 315 315 315 315 315 315 315 315 314 313 313 313 313 313 313 313 313 313 314 313 312 313 313 313 315 315 317 320 326 328 325 325 326 323 322 325 327 328 328 328 327 327 327 328 330 330 331 330 330 330 329 328 328 327 326 325 326 324 323 323 322 322 320 319
315 315 315 317 317 316 314 313 312 313 314 313 313 315 317 318 317 317 316 316 316 316 316 316 316 316 316 316 316 316 316 316 316 316 316 316 315 315 315 315 314 314 313 313 313 313 313 313 313 313 313 313 314 313 313 313 313 313 313 315 316 319 323 323 326 327 322 322 326 328 329 329 328 328 328 327 326 329 330 330 331 330 329 329 328 328 327 325 325 325 324 323 322 322 320 319 319
315 314 315 316 316 316 314 312 312 314 314 312 313 315 318 319 319 317 316 316 315 315 315 316 316 316 316 316 316 316 317 317 316 317 316 316 315 315 315 315 314 314 314 313 313 313 313 313 313 313 313 313 313 313 313 313 313 313 312 313 313 319 326 329 330 328 324 326 330 328 327 326 326 327 327 327 327 327 327 328 330 329 329 328 327 328 327 324 324 324 323 323 322 321 320 319 319
314 313 316 316 315 316 315 311 311 314 313 312 314 316 318 318 318 316 315 316 315 314 315 316 316 316 316 316 316 316 317 316 316 316 316 316 316 315 315 315 315 314 314 314 313 313 313 313 313 313 313 313 313 313 313 313 313 313 312 311 314 321 329 331 329 329 327 328 329 325 323 322 322 323 325 328 328 328 327 328 328 328 328 327 327 327 326 324 324 324 323 322 322 321 319 319 317
315 314 316 316 315 316 315 312 310 311 312 312 313 315 317 317 317 315 315 315 314 314 315 316 317 317 317 316 317 317 317 317 316 317 317 316 316 316 316 315 315 314 314 314 314 313 313 313 312 312 312 313 313 313 313 313 313 313 312 317 322 324 326 326 326 329 330 329 326 324 324 322 321 322 324 327 328 328 328 328 327 327 327 327 326 325 324 324 324 323 322 322 320 319 320 318 313
315 315 316 315 315 314 314 314 311 309 311 314 314 314 316 317 317 315 315 315 313 313 315 316 317 317 317 317 317 317 317 317 317 318 318 317 317 316 316 315 315 314 314 314 314 313 313 313 312 312 312 312 313 313 313 313 313 312 312 320 326 326 322 320 321 326 330 329 326 325 325 323 320 322 324 325 325 325 325 326 327 326 325 325 324 323 324 324 323 322 321 320 319 318 319 314 308
315 316 315 315 314 314 315 315 312 310 312 314 314 314 315 316 317 316 316 315 313 313 314 315 315 316 317 317 317 318 318 318 319 319 318 318 317 316 316 315 315 315 314 314 314 313 313 313 312 312 312 312 312 313 313 313 313 313 314 318 321 322 323 322 321 323 326 327 326 325 324 323 322 324 324 325 325 323 323 325 326 325 323 323 321 321 323 324 322 321 320 320 318 315 314 309 305
316 317 316 315 315 314 315 315 311 310 313 315 315 315 316 316 317 317 317 316 314 313 313 314 314 315 316 317 318 318 318 319 319 319 318 318 318 317 316 315 315 314 314 314 314 313 313 313 312 312 312 312 312 313 313 313 313 314 316 320 320 319 323 325 324 325 326 327 327 324 323 324 325 325 324 324 325 324 324 324 325 323 322 322 321 320 322 322 321 321 320 320 316 309 310 307 306
316 317 316 316 316 314 315 314 310 309 313 316 316 316 316 317 317 317 317 316 314 313 313 313 314 315 316 317 318 318 318 318 319 318 318 318 318 317 316 315 315 314 314 314 314 314 313 313 312 312 312 312 312 313 313 313 314 315 317 322 322 319 320 322 324 327 327 326 326 323 324 325 324 324 323 323 324 324 323 322 322 321 322 322 320 321 322 321 321 321 318 317 311 305 307 307 306
315 316 316 316 316 316 315 313 310 309 313 315 316 315 315 316 316 317 317 316 315 315 315 315 315 315 316 317 317 318 318 318 318 318 318 318 318 318 317 316 316 315 315 314 314 314 313 313 312 312 312 312 312 313 313 313 314 314 316 320 321 320 320 319 322 325 324 324 326 324 324 325 324 323 323 323 323 323 321 319 320 321 321 321 321 322 322 321 321 318 312 310 307 304 305 306 306
315 316 316 315 316 316 313 311 310 310 313 315 315 314 315 316 316 317 317 316 316 316 316 316 316 315 315 316 317 318 318 318 318 318 318 318 318 318 317 316 316 316 315 315 314 314 313 313 313 312 312 311 312 312 312 313 313 313 316 319 319 321 322 321 321 322 323 325 326 325 324 324 323 321 321 324 324 322 321 320 320 320 320 321 322 322 321 320 317 311 304 304 305 305 305 304 304
316 316 315 315 317 316 313 312 310 310 311 313 314 313 315 316 315 316 317 317 316 316 316 315 315 315 316 316 317 317 317 317 318 317 318 318 317 317 317 317 316 316 315 315 314 314 314 313 313 312 312 311 312 312 312 313 312 315 319 320 320 320 321 320 319 320 323 326 325 325 324 323 322 320 320 324 323 321 321 320 320 320 320 321 322 321 319 315 308 303 302 303 303 304 303 303 302
316 316 316 316 317 316 313 313 312 311 311 310 312 314 316 317 317 318 318 316 315 315 314 314 314 315 316 316 316 316 317 317 317 317 317 317 317 317 316 316 315 315 315 315 315 314 314 313 313 313 312 311 311 311 312 312 313 318 320 320 320 321 321 320 319 319 323 326 325 324 323 322 322 320 320 322 322 321 320 319 320 320 321 321 320 318 313 306 302 301 302 302 302 302 301 301 300
316 316 316 316 316 316 314 314 314 314 314 312 312 314 315 317 316 318 318 317 317 316 315 316 315 316 316 316 317 317 317 317 317 317 317 317 317 317 316 316 315 315 315 315 314 314 313 313 312 312 311 311 311 311 312 312 313 317 317 318 320 321 321 322 320 319 322 324 324 323 322 322 322 321 320 320 321 321 319 319 320 321 321 319 316 311 305 301 301 302 301 301 300 299 299 299 299
315 316 316 315 315 316 315 315 315 315 315 314 313 314 315 316 315 317 318 318 318 318 317 318 317 316 316 316 316 317 317 316 317 317 317 317 317 317 317 316 315 315 315 314 313 313 313 312 312 311 311 310 311 311 312 311 313 314 314 318 320 319 321 324 323 321 322 324 323 321 321 320 320 320 319 318 319 319 318 319 320 320 318 313 308 304 301 301 301 301 300 300 299 298 298 298 298
316 316 314 313 314 315 315 316 316 316 316 314 314 315 316 317 317 317 317 317 317 317 318 319 319 318 316 316 316 316 316 316 316 317 317 317 317 317 317 317 316 314 314 313 313 312 312 312 311 311 310 310 311 311 311 311 312 312 314 319 321 319 321 324 323 321 322 323 321 321 320 320 318 317 317 318 318 318 318 319 319 316 311 305 302 301 300 300 301 300 300 299 298 297 297 297 297
315 312 311 312 314 315 315 316 316 315 315 316 316 315 315 316 317 315 316 316 317 317 317 319 321 319 316 316 316 316 316 316 316 317 317 317 318 318 317 316 315 314 313 313 312 312 311 311 311 311 310 310 310 311 311 312 312 312 315 318 320 321 322 322 321 320 322 322 321 321 320 319 318 316 317 318 317 317 318 319 317 311 304 301 300 299 299 299 300 299 299 299 298 297 297 297 297
312 309 311 312 313 314 314 316 316 315 315 317 317 315 313 314 316 315 314 316 317 317 318 319 320 318 316 317 317 317 317 317 318 318 318 318 318 319 318 317 315 314 313 312 311 311 310 310 310 310 310 310 310 310 310 312 312 313 317 319 320 321 320 319 319 320 322 322 322 321 319 319 317 316 318 317 316 317 318 317 313 305 301 300 299 298 298 298 298 298 298 298 297 297 296 296 296
311 313 315 315 314 314 314 315 315 316 317 317 317 316 313 313 316 317 316 316 317 318 318 319 319 317 317 318 318 318 319 318 318 318 318 319 318 318 318 317 316 315 313 311 310 310 310 310 310 310 309 309 310 310 310 311 311 313 317 318 318 318 317 318 320 320 321 321 321 320 318 317 315 315 318 317 316 316 317 314 308 301 299 299 298 298 298 298 298 298 297 297 297 296 296 295 295
312 317 317 316 315 315 315 315 316 317 317 316 314 315 315 313 315 317 316 315 315 316 317 318 319 319 317 317 318 318 318 318 318 318 318 319 318 318 318 318 317 316 315 313 311 310 310 310 310 309 309 309 310 310 310 311 311 313 314 315 317 318 319 320 320 318 319 320 321 319 317 316 315 315 318 317 316 316 315 310 303 300 299 298 297 297 297 297 297 297 297 297 296 296 296 295 295
314 317 316 315 314 314 316 317 317 317 316 313 311 313 316 315 315 316 316 315 315 316 316 316 317 318 317 317 317 317 317 317 317 318 318 318 318 318 318 318 317 317 316 315 313 311 311 310 310 309 309 309 310 310 310 311 312 313 313 314 317 319 320 320 318 316 318 320 319 318 316 315 316 317 317 317 316 315 312 306 300 299 298 297 297 297 297 297 296 296 296 296 296 295 295 295 294
315 317 316 315 314 315 316 315 313 313 314 310 308 313 316 316 316 316 316 316 317 317 316 315 315 316 316 316 316 316 316 316 316 317 317 317 317 317 317 317 316 316 315 314 313 312 311 311 310 309 309 309 310 310 310 311 312 313 313 314 317 319 319 318 317 317 319 319 318 317 315 314 316 318 317 316 315 313 308 302 299 298 297 297 297 296 296 296 296 296 296 295 295 295 295 294 294
315 317 316 315 315 315 314 314 312 312 313 309 308 313 317 317 316 316 315 314 315 315 315 315 314 315 316 316 316 316 314 314 316 317 317 317 317 317 317 316 315 315 315 314 313 312 312 311 310 309 309 309 310 310 310 311 312 313 313 314 317 319 319 318 316 317 318 318 317 316 315 314 315 316 316 315 313 310 304 300 299 298 297 296 296 296 296 295 295 295 295 295 295 294 294 294 293
314 315 315 315 315 313 312 312 312 311 313 312 311 313 315 316 316 315 314 314 315 314 313 313 314 316 317 316 317 317 313 314 317 318 318 318 317 317 317 316 315 315 314 314 313 312 312 311 310 309 309 309 309 309 310 310 311 312 312 313 315 316 317 317 317 318 318 318 317 316 315 314 314 315 315 313 310 306 301 299 298 297 296 296 296 295 295 295 295 295 295 294 294 294 293 293 293
314 314 314 315 315 314 312 311 309 310 313 314 313 314 314 314 315 315 315 316 316 315 314 314 314 317 317 317 318 317 314 316 318 318 318 318 318 317 316 315 315 314 314 314 313 312 311 311 311 310 309 309 309 309 310 310 309 310 312 313 313 314 315 316 317 318 318 317 315 315 315 314 313 314 315 312 308 303 299 298 297 296 296 295 295 295 295 295 295 294 294 294 293 293 293 292 292
314 314 315 314 313 314 313 313 313 312 314 315 315 315 313 313 315 315 316 316 315 315 315 315 316 317 316 316 318 317 315 317 317 317 318 318 318 317 316 315 315 314 314 313 313 312 311 311 311 310 309 309 309 310 310 310 309 309 312 313 313 314 315 316 317 318 316 315 314 314 314 314 313 314 314 311 305 301 298 297 296 295 295 295 295 294 294 294 294 294 294 293 293 293 292 292 292
312 313 314 314 315 315 314 314 315 315 315 315 315 315 313 314 315 315 316 317 316 316 317 316 316 317 316 317 318 317 315 317 317 318 318 318 318 317 317 316 315 314 314 313 312 311 310 310 310 310 309 309 309 309 310 310 309 309 311 313 313 313 314 316 317 316 315 314 314 313 313 313 313 313 313 310 304 299 297 297 296 295 295 295 294 294 294 294 294 294 293 293 293 292 292 292 292
311 312 313 312 314 315 315 314 313 314 315 314 315 315 314 315 316 315 315 317 316 317 318 319 318 317 317 317 317 316 316 317 318 318 318 318 317 317 317 316 315 315 314 313 312 311 310 310 309 309 309 309 309 309 310 310 309 309 310 312 314 313 313 315 316 316 314 313 313 313 312 312 312 313 313 309 302 298 297 296 295 295 294 294 294 294 294 294 294 293 293 293 293 292 292 292 292
312 313 314 313 312 313 313 314 313 313 314 314 314 315 314 315 318 317 315 315 316 317 319 320 319 318 318 318 317 316 316 317 319 318 318 318 317 317 317 316 316 315 315 314 313 312 311 310 310 309 308 309 309 309 309 310 310 309 310 313 315 314 314 315 316 315 314 313 313 312 311 311 312 313 312 307 300 297 297 296 295 295 294 294 294 294 294 293 293 293 293 293 293 292 292 292 292
315 314 315 315 314 313 314 315 313 311 313 314 314 314 315 316 318 316 315 316 317 318 319 319 319 318 318 317 317 318 318 318 318 318 317 318 317 317 317 316 316 316 315 315 314 313 312 311 310 309 309 309 309 308 309 310 310 309 310 312 314 314 313 315 316 315 314 313 312 311 310 310 311 311 310 306 299 297 297 296 295 295 294 294 294 294 293 293 293 293 293 292 292 292 292 292 291
Wind_Speed
7 8 9 9 8 7 5 2 1 3 1 1 2 1 3 1 3 2 3 3 1 2 4 2 6 10 5 1 0 2 2 2 2 2 1 7 17 19 17 16 16 16 14 13 13 11 11 11 12 11 10 11 11 13 13 13 12 11 10 9 9 8 9 10 10 10 9 9 10 10 10 11 11 10 11 13 14 15 15 15 14 14 14 14 14 15 14 13 14 14 15 15 15 16 16 16 16
9 9 9 8 6 4 2 1 1 1 1 1 2 0 3 2 1 4 4 2 1 3 5 4 8 10 3 1 1 0 2 2 1 1 4 14 19 17 17 16 17 17 14 13 13 12 11 11 11 10 10 11 11 12 13 13 12 11 9 8 8 7 8 8 9 9 9 9 9 10 10 11 11 11 12 14 15 16 17 17 15 14 13 14 14 15 15 15 15 15 16 17 16 16 17 16 16
10 10 10 8 5 3 2 0 1 1 1 1 2 3 3 4 4 3 2 3 6 9 9 8 8 8 4 2 3 2 1 2 4 6 10 17 15 15 17 16 18 18 15 14 14 13 12 11 11 10 10 11 11 11 12 13 11 10 8 7 7 8 8 7 8 8 8 8 9 10 11 11 11 12 13 14 15 16 17 17 17 15 14 13 13 15 15 16 16 17 17 17 16 16 16 16 15
11 11 10 7 4 3 2 1 1 1 1 1 1 4 5 4 5 4 5 7 11 10 7 7 5 6 7 4 2 1 1 4 8 11 13 17 14 16 18 17 19 18 16 15 14 14 13 13 12 11 11 11 11 10 10 12 11 9 8 7 7 8 8 7 6 7 7 8 9 10 12 12 13 13 14 14 14 15 16 17 17 16 14 13 13 14 15 17 18 18 18 17 17 16 16 16 15
11 11 9 5 3 2 1 1 1 2 2 1 1 4 5 4 5 6 8 10 9 6 3 4 2 5 6 3 2 1 2 6 10 14 15 18 17 17 17 17 19 18 16 14 14 14 14 14 13 12 12 11 12 10 9 10 10 9 7 7 7 8 8 7 6 6 6 7 9 11 12 12 13 13 13 13 13 14 16 16 16 16 15 14 13 14 15 16 17 17 18 17 17 17 16 16 16
11 10 7 5 3 2 2 1 1 0 3 2 1 4 6 4 6 9 10 8 5 1 1 2 1 3 3 3 4 3 7 7 10 14 16 18 17 17 16 17 19 18 16 14 14 14 13 14 13 12 11 11 11 10 9 9 10 8 7 7 8 8 8 7 6 5 5 7 9 10 11 11 11 11 11 11 12 13 15 16 16 17 16 14 14 14 14 15 15 16 17 17 17 16 16 16 16
12 8 6 6 4 2 1 1 1 1 3 2 3 3 5 6 7 11 10 7 5 4 3 3 2 3 2 3 4 7 11 10 12 14 15 17 17 17 16 17 19 18 15 14 13 14 14 13 13 12 11 10 10 9 9 9 10 9 7 8 9 9 8 7 6 5 5 7 8 9 10 10 9 9 10 10 10 12 14 15 16 17 16 15 14 14 14 14 14 15 16 16 16 17 17 17 17
11 7 5 4 2 2 0 2 1 1 2 1 3 1 3 6 8 10 9 6 3 3 4 4 5 3 2 4 2 8 11 11 14 13 15 16 16 17 17 18 18 17 15 15 15 14 14 13 13 12 12 11 9 9 9 9 9 9 8 9 9 9 9 8 7 6 6 7 8 9 9 9 8 8 8 9 9 11 13 14 15 17 16 16 15 14 14 14 14 15 15 16 16 17 17 17 17
9 6 4 3 1 1 1 1 1 1 1 1 2 2 2 6 8 7 8 5 2 2 3 5 7 2 2 4 2 8 11 11 13 13 15 14 16 17 17 19 17 17 16 15 16 15 16 15 13 12 13 12 11 10 9 9 9 8 9 9 9 10 10 9 8 7 7 7 7 8 8 8 8 7 7 8 8 10 12 13 14 16 16 15 15 15 15 14 15 15 16 16 16 17 17 17 17
6 5 4 2 1 2 2 1 1 1 1 1 2 3 4 9 9 6 7 5 4 3 4 8 7 3 0 4 3 8 11 11 13 13 14 13 15 16 18 20 17 17 17 16 16 16 17 16 15 14 13 13 12 11 10 9 9 9 9 9 8 9 10 10 9 7 7 7 7 8 8 8 7 7 6 7 7 9 10 12 13 14 15 15 15 15 15 16 16 17 17 17 17 17 17 17 17
3 4 4 2 2 2 2 2 2 2 1 1 3 4 7 10 8 5 5 4 5 4 5 9 6 4 3 3 4 8 12 13 13 13 13 13 14 15 19 21 18 18 18 17 17 17 17 15 15 15 14 13 13 12 11 10 10 9 9 9 9 9 9 9 9 8 7 7 7 7 7 7 7 6 6 6 7 8 9 11 12 13 14 14 15 15 16 17 17 18 18 18 18 18 18 18 18
2 2 3 3 2 1 1 2 3 2 1 2 4 7 9 12 8 6 7 4 6 6 6 10 4 3 4 2 5 9 12 14 14 14 13 12 13 15 18 21 20 20 20 19 19 18 17 15 14 15 15 14 13 12 12 11 11 10 10 10 9 9 9 9 9 9 8 7 7 7 7 7 6 6 5 5 6 7 8 9 10 11 12 13 13 14 16 17 18 18 18 19 19 18 18 18 17
2 2 3 3 1 0 2 2 2 2 2 5 4 8 11 11 9 7 7 4 6 6 6 12 7 3 3 1 4 10 13 14 15 15 14 13 14 14 17 20 21 21 22 21 20 19 17 16 15 14 14 14 13 13 12 11 11 11 11 11 11 10 10 9 9 9 8 7 6 6 7 6 6 5 5 5 5 6 7 8 10 10 11 12 12 13 15 16 17 18 18 18 18 18 18 17 17
5 4 1 2 1 1 2 1 3 3 3 5 4 9 13 9 8 7 6 6 7 7 5 12 11 3 4 3 4 10 13 15 16 16 16 15 14 15 16 19 21 21 23 21 21 21 18 18 16 14 14 13 13 14 12 11 12 12 11 11 12 12 11 10 9 9 8 7 7 6 6 6 6 5 4 4 4 5 6 7 8 9 9 10 10 11 12 14 16 16 16 16 16 17 17 17 17
8 6 2 3 2 2 2 0 2 5 3 6 7 11 13 8 8 8 8 7 6 9 6 8 12 4 3 3 4 9 13 14 15 16 17 16 16 17 16 17 19 20 22 22 22 22 20 20 17 15 16 15 14 15 13 13 14 13 12 12 12 12 11 11 10 9 8 8 7 6 5 6 6 5 4 4 3 3 4 5 7 7 7 8 9 9 10 12 13 14 15 15 15 15 15 16 16
9 6 2 3 3 2 3 1 2 4 2 6 9 12 10 7 9 9 9 8 4 10 9 7 12 8 3 3 3 6 12 14 15 16 17 17 17 18 18 18 18 19 22 23 22 23 22 21 19 18 18 16 15 15 14 14 15 14 13 13 13 13 12 11 11 10 9 9 8 7 6 6 6 5 4 4 3 3 3 3 4 5 5 6 7 7 8 9 10 12 13 13 13 13 14 15 16
9 4 2 2 2 3 4 6 4 2 2 6 10 12 9 6 8 8 9 10 6 8 11 10 13 13 9 6 5 5 9 13 16 17 18 18 18 19 20 20 19 19 21 24 24 24 24 22 21 20 18 16 16 17 15 15 15 15 14 14 14 14 13 12 11 11 10 10 10 9 8 7 6 5 5 5 5 4 3 3 3 3 4 4 5 6 7 7 8 8 10 11 11 12 12 14 15
5 2 2 3 3 3 5 8 6 1 2 8 11 13 10 6 8 8 6 8 9 8 11 13 13 14 14 10 8 7 7 12 15 17 19 20 20 21 21 21 21 20 19 22 24 24 24 24 23 22 20 19 19 19 16 14 15 15 15 16 15 15 14 13 12 12 12 11 11 10 9 7 7 7 6 6 6 6 5 4 4 3 4 4 4 5 6 6 6 6 7 8 9 10 11 13 14
2 1 2 3 2 2 3 7 7 1 2 8 10 13 11 5 8 9 7 6 7 9 10 13 15 15 16 15 13 11 9 10 14 17 19 21 21 21 22 21 21 20 18 19 23 23 24 25 25 24 23 22 22 20 17 16 16 16 16 16 16 16 15 14 14 13 13 13 12 11 9 8 8 9 9 8 7 7 7 6 5 4 3 3 3 3 5 5 5 5 5 6 7 8 10 12 13
2 1 3 2 2 2 3 7 7 2 1 7 9 12 10 5 8 10 7 4 6 10 11 11 15 18 17 17 17 15 13 12 13 17 20 21 21 21 21 21 20 19 17 17 19 20 21 23 26 25 23 23 22 21 20 20 19 18 17 17 17 17 16 16 16 15 15 14 14 13 11 10 10 9 10 9 9 9 8 8 6 5 4 4 3 3 4 4 4 4 3 3 5 7 9 11 11
2 1 1 2 3 2 4 8 7 3 1 6 8 9 8 6 10 11 6 5 7 12 15 14 15 17 17 17 17 17 17 15 15 16 19 21 22 21 21 20 19 18 17 16 16 18 19 20 23 24 23 22 21 21 22 23 22 21 19 18 18 18 18 18 17 16 16 16 16 15 14 13 11 9 10 10 9 9 10 9 8 7 6 5 5 5 4 4 4 3 2 2 3 5 8 10 10
4 1 2 3 3 1 4 7 8 5 3 5 8 7 6 7 10 11 9 9 8 9 14 15 15 15 16 16 16 17 17 17 17 17 18 20 21 22 21 21 20 18 17 17 17 18 19 19 20 21 21 21 21 21 22 22 22 22 21 20 20 20 20 19 19 18 17 17 17 16 16 15 13 11 11 11 11 11 11 10 10 9 8 6 7 6 6 5 4 3 3 3 2 2 6 9 10
2 2 2 3 3 3 4 5 6 7 5 6 8 6 6 7 7 10 15 17 12 10 11 11 11 12 14 15 16 17 17 17 16 16 16 18 20 21 21 21 20 19 18 18 17 17 18 20 20 20 20 21 22 22 22 21 21 20 21 21 21 22 22 21 20 19 19 18 18 18 17 16 15 14 13 13 13 13 13 13 12 11 10 8 8 7 7 6 4 3 3 2 2 1 5 7 9
1 3 4 3 3 2 3 4 5 8 7 6 7 7 6 7 6 7 17 25 21 19 17 14 13 12 12 13 15 17 17 17 16 15 16 17 18 20 21 21 20 20 19 18 18 18 18 19 21 21 22 23 24 24 24 24 22 20 20 21 22 22 22 23 22 20 20 20 19 19 18 18 17 16 14 14 14 15 15 15 14 14 12 11 9 8 8 5 3 3 4 3 3 1 4 7 9
2 4 4 4 2 1 3 4 6 7 5 6 7 6 5 7 6 7 19 27 23 23 22 19 19 17 16 16 15 15 16 17 16 16 17 17 19 20 22 22 22 21 20 19 18 18 18 19 20 21 22 23 25 26 26 26 25 24 22 22 23 21 22 23 21 21 21 22 22 19 19 20 20 18 16 14 14 15 16 16 17 18 15 14 11 10 10 6 3 5 5 5 4 2 1 6 9
2 4 5 4 3 2 4 4 5 4 3 5 6 4 3 6 5 10 22 26 24 24 23 22 22 21 21 21 20 19 19 19 18 18 18 19 20 21 22 23 23 22 21 20 19 19 19 19 20 21 22 22 23 25 25 25 26 26 25 25 23 22 24 24 22 21 21 23 23 22 21 20 21 20 17 16 16 15 16 17 19 21 17 14 14 12 11 7 5 7 7 7 7 4 1 4 8
5 6 7 5 3 3 3 3 4 2 2 3 4 3 2 3 2 8 14 14 16 18 20 22 22 23 24 23 23 23 23 22 21 21 21 21 22 22 23 23 23 22 21 21 20 20 20 20 21 21 21 22 23 23 24 25 27 28 28 29 27 25 26 26 24 21 21 23 22 22 22 21 20 20 18 17 17 16 17 17 19 21 17 13 15 13 11 7 6 8 9 10 9 5 1 3 5
6 7 6 5 3 2 2 2 3 2 2 2 2 2 3 2 3 12 12 9 11 11 13 16 18 20 22 23 23 24 24 24 23 24 24 23 23 22 22 22 22 22 21 21 21 21 21 21 21 21 21 21 22 22 23 25 26 28 29 29 30 31 30 29 28 25 24 23 20 21 22 21 21 21 20 19 18 18 18 17 17 21 18 13 13 14 12 8 7 9 11 12 9 5 1 1 4
6 5 3 1 1 2 2 1 2 3 2 3 2 4 7 8 13 20 16 14 15 15 17 17 18 19 19 20 22 23 24 24 24 25 25 24 23 22 22 21 21 22 22 21 21 22 23 23 22 21 21 21 22 22 24 25 25 26 27 29 30 32 31 28 27 26 23 22 23 24 24 22 20 19 20 20 19 19 19 16 15 19 17 12 13 16 13 8 9 12 13 13 9 5 1 2 3
6 3 1 0 2 3 2 1 1 3 3 4 3 5 6 10 18 21 16 17 17 17 20 20 21 21 21 22 22 23 24 24 25 24 25 24 23 23 22 23 23 23 23 23 22 23 24 24 24 23 22 22 22 22 23 25 25 24 24 26 28 29 28 25 25 23 19 20 22 23 22 21 18 17 18 18 19 21 19 16 18 20 17 14 16 18 14 10 13 14 13 14 11 6 3 4 3
3 1 1 0 2 1 3 2 1 3 4 6 4 6 6 5 9 11 14 18 17 18 20 21 23 22 21 22 22 23 23 24 24 24 24 24 23 23 23 24 24 25 25 24 24 24 25 26 26 25 24 23 23 23 23 23 24 24 23 24 24 25 25 24 25 23 19 20 20 19 20 19 19 21 20 17 19 21 20 19 19 18 17 16 17 18 15 12 15 15 14 14 11 7 6 6 5
2 2 2 1 3 1 3 1 1 2 2 7 6 5 6 6 4 4 9 13 14 18 20 21 22 21 22 22 22 23 22 23 23 23 24 23 24 24 24 25 25 26 26 25 25 24 25 26 27 27 26 24 23 23 23 23 23 23 23 23 22 23 25 24 22 22 23 24 22 21 22 19 19 23 23 19 18 19 20 21 19 18 20 19 17 19 16 12 15 17 16 14 10 9 9 8 6
1 2 2 2 3 2 1 2 0 2 0 5 7 4 4 2 1 2 4 7 9 13 17 19 20 19 20 21 22 22 22 22 22 22 23 22 23 24 25 26 27 27 27 26 26 26 26 26 27 28 27 25 24 23 23 23 23 23 22 21 20 22 25 24 22 24 26 26 24 22 22 18 15 19 24 21 16 17 18 18 17 20 22 19 18 20 17 15 16 17 15 14 12 10 10 9 8
2 1 2 1 2 2 1 2 2 0 1 5 7 7 11 7 3 5 7 9 10 11 17 21 21 21 21 21 22 22 23 24 24 23 22 21 22 23 25 26 27 28 28 28 28 28 28 27 28 28 28 26 25 24 23 23 23 22 21 21 23 24 23 23 24 27 28 26 25 23 21 17 15 18 23 23 20 20 20 18 19 20 19 17 19 18 18 19 19 16 15 14 13 11 12 11 10
3 4 3 1 3 4 4 1 2 1 3 5 7 9 15 14 11 14 18 20 19 18 23 26 27 28 28 27 27 28 29 30 30 27 25 23 23 23 25 27 28 30 30 30 29 29 28 28 29 29 29 27 26 25 24 24 23 21 20 22 24 24 23 23 24 27 29 26 24 22 19 17 17 18 20 21 21 22 22 21 19 18 16 17 18 19 22 21 18 17 16 15 15 13 12 10 10
3 3 2 2 3 4 3 1 1 0 4 7 10 12 16 16 13 15 19 21 22 23 25 28 31 32 32 33 34 34 35 35 34 32 29 27 26 26 26 27 29 30 31 31 31 30 29 28 29 30 30 28 27 26 26 25 24 21 20 21 22 22 24 25 23 24 24 22 21 20 18 17 18 19 18 18 20 21 21 21 20 17 18 19 18 19 24 22 20 20 17 15 15 14 13 12 12
4 3 1 1 3 4 1 2 2 1 4 8 8 11 17 18 13 14 18 18 19 21 21 26 31 33 34 35 37 38 38 37 35 33 33 31 30 30 29 29 30 31 32 33 32 31 30 29 29 30 30 29 28 28 27 26 25 22 20 22 23 22 23 25 24 24 22 20 21 19 18 18 19 21 20 19 21 20 19 21 22 21 22 22 19 20 22 21 21 20 17 16 15 14 15 16 16
2 2 1 1 3 5 1 3 1 2 3 6 4 8 16 18 15 16 16 14 18 22 22 24 26 28 33 37 39 40 39 38 35 34 34 33 33 32 32 31 32 33 34 34 34 33 32 31 30 31 31 30 29 28 27 25 24 23 21 23 23 21 22 25 26 26 23 22 23 20 19 19 21 23 23 24 25 21 18 19 20 22 25 25 23 23 23 21 21 20 18 18 17 15 14 16 18
1 1 1 2 2 3 1 3 2 1 3 5 5 8 14 17 17 18 19 18 23 29 28 28 24 21 30 37 40 41 40 40 38 38 37 36 35 35 34 34 33 35 36 36 36 34 33 32 31 31 31 30 30 28 27 26 25 24 23 22 21 22 23 25 27 26 24 24 24 22 21 22 22 22 23 24 24 20 18 19 19 23 26 27 25 25 24 22 21 20 19 18 17 17 16 17 17
3 2 3 3 0 1 2 1 2 3 3 5 7 8 12 15 15 18 22 21 24 29 29 31 32 31 38 42 43 42 42 43 41 40 40 38 37 35 35 35 34 35 37 38 37 36 35 33 32 32 31 31 31 29 28 27 26 24 23 22 21 22 23 24 26 26 24 25 25 24 24 24 22 21 22 23 21 19 20 20 21 24 25 26 26 25 24 23 22 21 20 18 15 15 16 17 17
3 5 6 4 3 3 3 3 2 3 3 2 6 9 8 9 11 12 12 10 16 21 19 25 34 38 40 41 41 40 39 40 38 38 38 36 35 34 33 33 34 35 37 38 37 37 36 34 34 33 32 32 31 30 29 28 27 25 26 26 24 25 26 27 28 27 27 27 26 25 24 23 21 22 23 24 23 23 23 21 23 25 25 27 25 24 23 23 22 21 19 17 13 10 12 15 17
3 6 9 9 6 3 1 3 4 3 2 1 3 8 4 2 6 8 5 4 10 11 10 17 26 29 32 34 36 36 35 35 34 34 35 34 33 32 31 31 32 33 34 35 36 37 37 36 36 34 33 33 32 31 30 29 28 28 30 30 29 29 30 32 32 28 28 29 27 25 23 22 22 23 24 25 26 25 22 22 25 25 26 26 25 24 23 23 22 20 18 15 13 10 9 12 15
3 3 6 9 5 1 2 1 2 4 3 1 1 5 6 3 8 12 8 7 11 9 9 16 22 24 29 33 36 35 35 35 33 33 32 30 30 30 30 30 30 30 30 32 35 37 38 38 37 35 34 33 32 31 31 30 29 29 30 30 30 29 30 34 33 27 28 30 27 24 23 23 22 23 24 26 28 27 24 24 25 25 25 25 25 25 24 23 21 19 18 15 14 13 11 12 13
1 1 1 5 5 4 4 2 3 3 4 2 4 3 7 8 7 9 9 10 12 13 14 16 17 20 25 27 28 27 27 29 29 28 27 26 27 26 27 27 27 27 28 31 33 35 37 38 37 35 34 34 32 32 31 31 30 29 30 29 29 29 28 31 31 28 30 30 26 25 25 23 22 23 25 27 29 28 27 26 25 25 26 26 26 25 24 23 20 18 18 16 16 14 13 13 13
1 1 1 3 3 3 3 2 2 1 4 5 4 5 6 8 3 2 2 7 9 14 17 15 10 11 16 17 17 17 17 18 18 20 21 20 20 20 20 20 21 23 26 28 29 32 35 36 36 35 34 34 33 32 32 31 31 29 30 31 31 31 31 31 30 29 31 30 27 27 25 23 22 22 25 29 30 30 29 27 25 26 28 28 27 26 25 22 20 19 18 18 17 16 15 15 13
3 6 5 6 5 4 3 1 1 2 5 5 6 8 5 10 5 5 2 4 8 13 14 10 7 8 10 11 12 12 12 12 11 12 13 12 11 11 12 13 16 20 23 25 27 30 33 35 36 35 35 35 33 32 32 32 31 30 31 33 33 33 33 32 31 30 31 30 29 28 25 24 23 23 28 31 31 32 30 27 27 28 30 29 27 26 25 23 21 20 19 18 18 17 17 17 16
10 8 6 7 5 3 3 1 1 1 7 3 8 11 6 8 5 7 6 4 6 9 9 7 7 7 7 8 10 11 10 9 7 7 7 7 8 8 9 11 14 17 21 24 26 30 33 34 35 35 35 35 33 32 33 33 32 33 34 35 34 33 32 32 31 30 30 31 30 29 26 25 25 27 31 32 32 32 30 28 29 31 30 29 28 27 25 24 23 21 20 19 19 19 18 18 18
6 4 4 4 2 1 1 1 2 5 7 1 4 5 6 8 6 4 4 2 4 6 6 7 6 7 10 10 11 12 11 9 7 6 6 7 8 9 9 11 13 16 19 22 25 29 32 33 33 34 35 35 34 33 33 33 33 34 35 35 34 33 32 32 31 30 30 32 31 28 26 26 28 30 33 33 33 32 31 30 32 32 31 29 28 28 26 24 23 21 21 20 20 20 19 19 18
2 3 6 4 3 2 3 3 3 5 5 1 1 1 4 11 9 6 9 10 11 10 9 11 10 13 20 19 17 17 16 14 12 10 9 9 11 11 12 14 15 17 18 20 24 28 31 32 32 33 34 36 35 33 34 34 34 34 34 35 35 34 33 32 31 31 31 32 30 27 25 27 30 33 34 34 34 33 32 33 34 33 32 30 29 28 26 24 23 22 22 22 21 21 20 19 18
7 7 8 6 4 4 6 3 1 5 3 2 1 2 5 11 9 10 17 17 16 16 18 21 20 24 31 30 27 28 26 23 20 18 18 17 16 16 17 18 19 19 20 21 24 27 29 31 32 32 34 37 36 34 34 34 34 34 34 35 35 35 34 33 32 30 29 30 28 25 24 27 31 32 33 35 35 34 34 35 35 34 32 30 29 27 26 24 23 23 23 23 22 21 20 19 17
8 4 3 5 5 5 5 3 3 4 1 1 1 2 6 7 2 3 9 11 14 17 20 23 27 33 37 35 35 35 32 29 25 24 25 24 23 22 22 21 20 20 20 21 23 26 28 31 32 32 35 37 36 36 36 35 35 34 34 35 35 35 34 32 31 29 29 30 28 25 24 26 30 31 32 34 35 35 36 36 35 33 32 30 29 27 26 25 25 25 24 24 23 22 21 19 18
4 1 1 5 4 2 1 1 1 0 1 2 3 4 7 6 5 5 7 9 11 12 14 18 25 32 33 33 36 35 28 23 21 21 23 23 22 21 21 21 20 20 20 22 24 26 28 30 31 32 35 36 35 36 36 34 35 34 34 34 34 36 36 34 34 32 32 31 27 24 23 25 29 32 32 33 35 37 37 37 35 33 32 31 29 27 27 26 26 26 26 25 24 22 21 20 19
4 3 4 3 1 1 2 1 3 2 5 5 4 6 7 7 10 9 9 11 10 7 9 13 20 27 28 29 35 33 23 16 14 15 16 17 17 17 18 19 20 20 20 21 23 25 26 28 30 31 34 36 35 36 36 34 34 34 34 33 33 35 36 37 37 34 32 30 25 22 23 25 29 32 32 34 37 38 38 37 35 33 32 31 29 28 27 27 27 27 26 25 24 22 20 19 18
4 5 5 2 2 1 2 4 1 3 7 4 4 8 8 6 7 1 3 8 10 9 10 12 18 23 25 30 36 33 24 19 17 15 12 11 12 13 15 16 17 18 19 20 20 23 25 27 29 30 33 35 34 34 35 34 33 34 35 34 33 33 34 35 35 32 31 29 24 23 24 26 31 33 33 35 38 40 38 37 35 34 33 31 29 29 28 28 28 27 26 24 22 21 19 18 16
2 1 3 2 2 4 4 5 4 5 6 3 4 7 7 9 8 3 4 7 8 10 10 10 13 16 21 32 36 31 27 25 20 12 7 6 8 10 12 13 14 16 17 18 19 22 25 27 28 29 31 33 31 32 35 34 33 33 34 35 33 32 34 34 32 32 33 30 25 24 25 28 32 34 34 36 40 41 39 38 36 35 34 31 30 30 30 29 29 27 26 24 22 20 18 16 14
2 0 2 1 2 3 4 3 2 5 5 4 4 4 7 10 7 8 12 12 10 10 9 8 10 14 23 31 29 26 24 18 10 7 6 5 5 7 9 10 12 14 15 17 19 22 24 26 28 28 30 32 31 33 36 35 33 32 33 35 34 33 34 33 32 34 35 30 26 25 26 29 33 34 34 37 40 41 39 38 37 36 34 32 31 31 31 30 29 27 25 24 22 19 17 15 14
5 6 6 4 2 0 2 2 1 2 4 4 3 5 10 8 4 8 13 11 10 11 8 7 11 18 26 27 22 20 17 8 7 8 6 4 2 3 5 8 10 13 15 16 19 21 22 25 27 28 30 32 32 33 36 35 33 31 32 35 36 35 35 34 34 36 35 30 27 27 27 30 34 34 35 38 41 42 40 38 37 36 34 32 32 32 31 30 28 27 25 23 21 18 16 15 14
8 9 10 10 8 5 4 5 2 1 3 3 2 6 12 6 3 6 10 8 8 10 8 8 12 20 24 24 19 14 8 8 11 9 7 4 2 1 3 6 8 11 13 15 17 19 21 24 26 27 30 32 31 32 35 35 33 32 32 34 35 35 35 36 36 37 35 31 29 29 29 32 35 35 35 38 41 41 39 38 37 36 34 33 32 32 31 30 28 27 24 22 20 18 17 15 13
Wind_Direction
143 143 141 135 123 130 129 209 198 61 294 62 93 151 127 78 6 203 169 158 179 145 193 206 154 165 166 1 28 19 7 254 326 325 14 135 157 161 163 166 165 160 156 152 151 154 157 152 146 141 131 124 132 134 127 127 123 121 122 124 131 129 123 116 108 99 91 82 73 66 57 55 60 65 62 57 55 56 57 60 64 69 71 73 74 75 79 83 87 89 92 91 88 87 85 84 86
148 143 139 136 127 153 142 287 273 90 262 99 130 75 101 133 209 191 174 163 45 111 159 156 158 172 190 9 145 258 192 214 249 149 137 149 154 160 165 168 167 161 157 156 152 154 161 160 152 143 134 129 135 137 129 129 127 125 128 128 131 131 127 114 103 96 89 80 69 62 57 61 67 68 68 67 65 62 60 60 62 67 70 73 75 78 81 84 88 91 94 94 94 95 93 92 92
149 142 137 132 114 133 140 4 323 149 289 51 121 114 124 170 182 164 127 77 92 123 135 137 158 178 212 238 202 249 168 190 184 148 143 146 149 166 169 168 168 163 159 159 155 156 162 165 160 147 138 133 137 143 133 130 131 129 129 126 127 132 133 119 102 94 85 75 64 60 63 71 77 77 77 74 69 63 59 59 61 64 68 72 75 78 82 85 88 90 93 96 101 104 103 101 95
149 144 135 133 127 109 109 355 29 279 9 37 80 130 160 181 161 108 94 111 118 124 127 148 164 186 219 256 209 246 135 171 167 144 148 157 159 171 169 167 169 165 161 160 158 160 164 166 164 155 147 140 142 146 138 134 135 132 125 122 129 134 132 123 104 91 82 71 65 66 74 82 86 86 81 76 70 63 60 60 62 65 69 71 74 78 81 86 90 91 90 91 95 99 102 100 94
151 147 141 152 180 95 82 93 109 280 26 44 14 132 169 173 144 119 127 140 131 113 118 172 174 180 216 243 194 254 158 165 165 154 159 169 169 172 171 168 171 168 161 160 162 165 167 166 164 160 155 147 145 145 141 138 137 133 123 119 125 132 130 124 107 93 84 73 72 77 85 90 91 89 82 77 71 64 62 62 65 68 72 73 74 78 81 85 91 96 97 96 95 95 96 94 90
147 146 146 145 122 96 156 140 142 114 43 349 3 121 164 161 147 139 145 162 171 154 121 214 252 171 196 197 201 193 161 161 166 164 167 170 171 175 174 171 172 169 163 166 169 171 171 166 163 159 158 151 145 144 142 144 143 137 126 123 125 131 133 126 116 102 89 81 82 86 92 96 95 90 83 78 72 66 64 65 67 69 73 76 77 79 82 85 88 94 98 99 97 94 91 88 85
144 140 140 132 88 45 216 93 90 107 65 341 6 101 153 151 151 148 157 182 207 239 237 239 225 192 179 161 186 177 168 165 168 171 173 172 173 178 177 173 171 170 169 173 176 176 174 170 166 159 159 156 149 146 145 149 146 143 135 130 132 135 137 134 131 122 104 92 91 93 96 101 100 94 82 77 72 67 65 67 68 69 71 76 79 81 83 84 85 88 91 92 91 90 88 85 82
150 147 145 144 72 9 168 94 85 47 63 323 324 15 135 148 161 163 171 187 195 209 230 225 208 223 154 143 159 175 173 168 171 175 177 175 176 180 178 173 171 174 174 177 180 179 179 178 174 165 162 163 160 156 150 152 150 149 142 136 139 141 144 142 143 134 118 106 100 101 104 107 108 102 88 80 75 68 66 68 69 69 70 74 79 83 85 85 85 86 86 86 86 85 83 81 79
153 152 144 150 123 95 116 104 106 60 72 209 264 239 172 165 172 182 183 197 222 181 208 198 196 235 122 164 162 175 180 172 175 179 181 179 178 181 178 172 172 178 178 179 183 181 183 183 183 178 170 168 167 166 160 156 156 154 147 145 147 146 150 149 150 143 131 121 112 112 111 113 114 111 98 87 80 73 69 70 71 71 72 75 79 82 85 86 85 85 85 84 83 82 80 78 75
144 139 132 133 151 146 140 162 130 112 149 206 264 212 185 177 179 198 193 204 222 196 203 194 199 254 193 176 169 181 186 175 177 183 185 180 176 179 178 174 173 180 180 183 186 184 186 186 189 185 178 175 171 171 168 164 165 163 156 155 156 152 153 156 157 153 146 135 124 121 116 114 113 110 101 89 84 78 74 73 74 73 73 76 80 83 84 85 86 86 86 84 82 81 78 76 73
134 125 136 150 165 180 170 164 155 131 117 263 249 196 186 181 178 194 201 223 217 206 195 192 203 232 219 192 189 192 185 176 179 183 184 181 178 178 179 178 175 179 181 184 191 190 186 187 193 188 182 181 177 176 175 174 173 169 167 166 166 159 157 161 161 161 159 146 134 126 119 117 114 113 107 96 86 81 79 78 77 75 75 77 81 84 85 86 87 87 85 84 82 80 78 75 73
155 128 166 182 170 183 153 158 158 136 144 225 192 177 187 181 182 194 201 215 199 203 203 197 203 206 204 187 201 196 185 182 181 184 185 181 181 179 182 184 181 182 183 185 193 196 190 185 188 189 187 186 183 182 182 181 180 175 175 176 173 169 166 165 165 166 165 156 144 132 127 126 122 123 116 106 92 83 84 84 82 79 78 80 83 86 88 88 87 86 85 84 83 81 79 76 73
161 155 195 172 93 68 140 148 142 133 200 207 174 172 182 179 197 203 192 203 186 196 207 203 211 231 218 166 203 200 193 190 183 185 188 184 182 184 186 187 190 191 189 190 194 197 196 190 189 190 188 190 190 187 187 189 188 184 179 181 180 178 175 173 173 170 169 166 153 142 140 138 134 135 125 116 99 87 88 87 85 82 83 86 89 91 92 92 90 88 86 85 84 82 80 77 73
141 140 187 144 87 136 145 120 150 200 200 168 152 170 178 182 210 206 190 206 199 202 213 207 212 236 228 200 193 203 201 196 190 188 190 191 185 187 190 189 194 196 195 197 196 197 200 197 194 194 193 195 199 196 195 196 197 193 185 187 185 184 183 180 181 178 176 175 166 156 152 152 149 146 142 135 109 93 94 90 85 80 85 92 95 97 97 97 96 93 89 88 86 83 80 75 71
140 121 79 125 135 158 180 263 158 214 191 147 163 171 178 195 206 203 210 219 210 213 221 210 208 213 227 196 160 196 206 201 197 193 190 195 192 192 193 192 195 197 198 200 200 201 204 203 195 196 200 200 204 204 202 201 202 201 194 193 192 191 189 185 187 187 186 184 178 173 168 166 163 163 166 158 132 107 103 96 89 82 86 98 102 103 103 102 100 98 94 91 86 81 77 72 67
141 118 91 144 153 185 188 190 154 213 180 140 167 169 178 206 203 201 216 222 220 217 219 209 208 215 242 214 167 187 204 205 204 200 195 197 197 198 199 197 197 196 200 203 204 204 208 210 202 201 204 204 208 207 208 206 203 205 202 200 199 197 196 193 191 192 194 195 191 188 187 179 176 177 178 180 165 141 124 111 101 93 93 103 107 105 104 103 101 99 96 92 86 78 72 67 63
141 133 175 171 175 194 176 176 171 191 163 143 167 177 184 196 201 208 217 217 219 220 219 220 220 227 237 224 211 200 201 208 209 206 202 201 201 202 204 203 201 200 203 205 206 205 208 212 211 210 207 204 207 207 208 208 204 206 208 208 206 202 203 202 197 199 201 204 202 198 200 186 183 184 181 193 181 163 160 152 140 119 106 108 111 109 105 104 103 99 97 92 86 78 70 64 61
146 165 195 191 177 174 174 179 173 134 172 166 175 187 194 187 189 203 212 213 219 231 229 230 233 233 235 230 220 218 210 213 215 213 209 208 208 206 208 209 207 207 207 207 207 207 209 212 214 213 210 207 210 212 208 207 212 213 212 211 210 207 209 210 205 204 204 209 211 204 205 199 192 188 187 198 187 175 178 179 176 151 125 117 118 118 113 115 116 106 99 91 84 79 71 62 58
114 121 207 209 161 138 166 175 167 179 192 163 172 187 197 199 178 191 212 205 206 229 234 232 238 238 236 233 228 226 226 226 222 220 218 217 217 214 213 214 214 214 212 209 208 209 212 214 215 214 214 214 216 217 208 202 210 215 215 214 215 213 212 215 211 209 207 210 216 209 208 211 204 197 197 202 194 185 188 196 192 174 151 131 129 136 129 128 126 115 105 97 89 85 74 64 57
78 176 219 197 128 112 166 177 162 126 161 158 168 185 197 206 178 189 216 207 201 227 230 224 233 239 239 237 235 234 235 239 233 226 224 224 225 223 221 221 222 222 220 215 213 214 216 215 216 216 217 218 219 216 209 207 211 215 217 217 219 218 217 217 215 216 215 213 218 215 212 213 210 207 207 207 202 196 200 208 197 183 182 156 148 162 151 142 138 128 120 120 114 103 87 74 64
116 191 259 75 130 131 153 181 174 136 132 164 167 176 196 202 188 192 201 216 223 232 234 232 237 243 246 245 242 241 241 243 240 233 229 228 228 228 228 228 230 231 228 225 222 221 221 219 217 217 218 219 218 215 212 214 218 221 220 218 220 221 219 219 218 220 220 219 220 218 217 217 216 213 210 208 205 206 212 216 204 192 196 176 160 168 174 167 162 153 150 178 159 119 99 86 70
116 57 24 77 134 104 132 178 193 191 170 167 169 175 197 191 195 204 204 226 236 234 240 242 246 249 253 252 248 246 245 245 244 239 233 231 231 231 231 231 234 236 235 233 230 228 228 227 223 221 221 222 221 220 220 221 224 226 223 220 220 221 221 222 224 222 220 220 221 219 218 220 219 216 209 205 204 207 213 216 213 208 203 188 169 170 182 179 178 189 201 211 201 124 92 81 61
125 70 97 120 100 65 131 171 196 194 179 173 181 193 197 186 208 218 218 232 239 241 247 249 249 250 253 253 248 245 245 246 246 244 241 237 235 234 233 233 237 239 239 238 236 234 232 230 230 229 228 229 228 228 229 232 236 229 222 222 222 223 225 228 231 226 222 222 223 221 220 222 222 220 213 206 206 209 212 214 218 219 210 199 182 176 183 182 188 220 239 266 255 148 75 61 46
83 116 141 151 93 62 133 161 183 178 185 189 188 199 196 199 223 231 234 239 241 246 251 252 254 255 255 253 250 249 248 249 249 248 245 243 241 238 236 235 237 240 241 241 239 237 234 231 231 232 233 233 233 234 233 236 238 223 218 224 225 228 229 229 230 227 227 227 226 224 222 224 223 222 216 207 207 210 212 216 221 221 214 208 197 185 189 195 218 246 255 273 261 172 65 38 31
59 120 143 152 105 101 131 134 158 162 183 183 182 196 200 220 242 255 249 248 248 250 253 254 256 257 256 254 254 252 251 249 249 248 244 242 240 238 237 235 235 238 239 239 237 235 234 231 229 229 232 232 232 234 234 236 233 216 209 217 222 229 226 223 225 224 224 227 228 225 223 224 223 221 219 214 208 209 216 224 227 219 211 211 206 196 199 216 249 247 244 233 219 197 57 21 18
68 109 129 139 106 106 124 131 150 156 163 168 187 195 213 241 263 263 255 255 256 255 254 253 253 255 256 256 257 256 255 253 251 250 247 243 240 238 237 236 237 238 239 238 235 233 231 228 225 224 225 227 229 232 231 232 230 218 209 210 216 222 219 221 228 225 222 230 232 228 227 228 225 221 222 223 217 214 217 228 232 217 206 209 208 203 205 223 244 237 238 220 205 201 214 12 5
101 109 109 96 77 96 121 148 156 180 167 177 217 200 231 249 251 258 252 249 252 253 253 252 252 252 253 254 256 257 256 256 254 250 248 244 241 239 237 238 238 239 238 237 236 232 229 225 222 220 220 221 224 228 228 227 227 223 218 215 213 213 218 222 226 228 231 239 237 229 229 230 228 227 228 227 224 224 221 226 232 218 208 212 213 208 205 220 235 231 232 218 201 189 185 4 353
101 121 121 74 53 107 135 170 174 214 200 191 233 250 249 192 214 246 242 237 246 253 256 254 254 253 253 253 253 255 255 255 253 250 248 245 243 241 240 239 239 240 239 239 238 235 231 226 223 221 221 221 221 225 227 228 228 227 226 223 217 217 223 224 225 236 242 241 235 228 229 231 233 234 234 233 230 231 224 221 225 219 214 211 219 217 207 219 232 228 221 206 193 177 165 344 343
98 112 148 86 64 190 153 175 212 224 221 153 148 261 239 201 227 243 242 248 255 260 262 261 259 257 256 256 254 253 253 253 251 250 249 248 246 244 242 241 240 241 241 240 239 236 233 230 227 225 224 224 224 224 227 232 233 231 231 228 225 224 227 228 227 235 241 237 231 229 228 228 232 233 232 232 233 230 220 216 218 219 216 208 221 220 204 214 227 223 212 194 187 177 185 312 326
109 79 329 178 222 219 123 59 236 218 210 152 154 266 239 204 228 241 246 252 257 260 262 262 261 260 258 257 257 256 254 252 251 251 250 248 246 244 241 239 237 239 239 238 238 236 234 233 232 230 229 228 227 227 228 232 236 237 234 230 228 226 227 232 229 227 234 232 223 221 223 221 222 223 225 227 228 223 213 213 213 210 210 206 216 216 205 218 224 219 210 193 185 186 234 280 286
102 67 282 167 243 184 94 60 200 211 197 160 180 261 254 223 226 235 247 251 255 258 260 262 262 260 259 256 256 255 254 253 253 253 251 248 245 242 241 239 236 237 237 237 237 236 235 234 234 234 233 232 231 231 231 233 236 237 235 230 224 217 217 225 226 226 229 220 211 215 224 227 227 226 228 227 221 217 211 210 213 212 212 206 207 212 212 225 224 211 200 194 191 203 241 257 247
53 231 183 129 242 185 91 90 192 242 187 168 197 256 262 262 254 238 252 252 250 255 260 263 264 262 260 257 256 255 255 253 252 252 250 247 243 240 239 239 238 238 238 239 239 239 238 236 236 236 235 235 234 233 233 234 235 235 233 228 220 215 214 218 223 225 217 211 214 224 228 231 235 228 226 222 210 213 208 204 214 218 212 206 205 212 216 225 217 196 185 198 219 233 238 238 221
86 258 225 154 218 253 97 119 126 311 69 193 221 265 269 260 281 242 245 248 247 256 262 265 266 266 263 260 258 258 257 255 252 250 250 248 245 243 240 239 240 240 240 241 241 242 243 241 239 238 237 237 237 236 234 235 235 232 227 222 219 219 220 221 223 217 208 211 222 225 223 226 232 224 220 218 213 220 216 208 219 213 201 203 210 212 214 211 200 190 192 210 228 231 225 223 203
172 226 248 205 219 251 250 133 110 302 256 226 227 250 257 252 265 261 259 269 268 262 264 267 269 268 266 265 263 261 260 258 255 253 255 255 251 248 245 243 242 242 242 242 243 245 246 245 242 240 239 238 238 238 236 235 234 228 218 214 215 220 224 222 220 217 217 228 231 221 218 225 229 222 218 219 221 229 231 227 226 214 200 207 215 211 206 199 194 203 217 217 214 214 213 210 194
187 191 207 226 213 228 261 258 121 177 233 238 231 246 259 257 255 260 263 268 269 265 266 269 269 268 268 267 265 263 263 261 259 259 260 259 256 253 249 247 245 244 244 244 246 246 246 246 243 241 239 238 237 237 236 234 234 225 213 211 214 219 220 215 216 221 226 231 224 213 215 221 220 215 212 215 218 222 226 224 216 212 212 217 217 203 195 195 201 213 220 217 206 199 201 199 190
139 160 191 203 229 239 239 245 54 270 253 251 247 255 268 267 259 258 262 265 265 264 266 267 267 267 268 267 266 264 262 261 260 262 262 259 257 255 252 250 247 247 247 247 247 247 247 245 243 240 239 237 235 235 233 231 232 224 212 211 211 214 216 214 215 216 216 215 209 208 211 212 210 211 216 217 213 210 213 215 214 216 216 214 208 195 192 198 209 211 209 212 204 185 187 194 193
102 121 179 185 256 266 187 108 54 53 269 260 249 263 273 275 272 264 263 267 266 261 258 259 262 264 266 267 267 265 264 262 261 263 262 260 258 255 252 250 248 248 247 247 247 246 246 244 242 240 238 237 235 234 233 230 231 226 216 212 213 216 216 216 213 208 210 213 213 211 206 207 211 215 225 223 215 214 216 218 221 220 208 202 199 197 201 205 208 207 199 200 201 189 187 190 190
96 166 237 226 249 264 137 85 58 113 253 267 267 276 275 276 277 271 262 258 262 259 253 254 257 260 264 267 267 267 266 265 264 263 261 260 259 256 254 251 248 249 248 246 246 244 244 243 241 240 237 237 235 234 233 229 228 227 220 215 217 218 211 210 211 214 223 222 217 213 205 208 212 219 230 226 218 221 227 228 226 215 200 196 201 204 206 205 203 203 194 189 193 197 195 188 186
131 162 248 255 254 280 289 82 55 146 226 275 295 285 276 276 278 273 262 250 255 258 256 258 261 261 263 265 267 267 268 268 266 265 263 261 260 259 257 253 250 249 248 247 245 244 243 242 241 240 237 236 236 234 231 225 223 222 217 212 216 215 208 210 214 220 226 219 214 213 209 209 213 224 231 220 211 216 232 239 225 207 195 197 203 202 200 199 198 195 191 190 190 192 196 193 189
198 183 215 246 15 292 261 86 85 170 219 296 303 289 277 274 272 268 261 251 253 259 258 261 263 262 263 265 267 267 268 269 268 267 267 265 263 261 258 256 253 249 247 246 245 244 243 242 241 240 237 235 234 233 229 223 220 218 213 210 215 217 215 217 218 220 218 210 208 209 209 209 210 221 226 217 215 227 242 236 212 198 193 195 199 197 194 192 192 188 188 195 196 193 195 195 194
211 212 221 237 225 226 249 353 349 204 204 285 295 287 269 256 260 264 265 257 260 261 258 261 261 261 264 266 266 265 265 266 267 267 268 268 267 265 262 258 254 250 249 248 247 246 244 242 241 240 237 234 232 232 228 224 219 212 210 210 213 215 217 217 214 216 215 208 206 207 208 210 208 214 223 225 228 235 238 219 198 195 194 194 195 194 193 188 187 187 187 194 199 201 203 199 197
217 220 221 234 244 234 215 359 334 272 242 164 300 292 266 204 252 263 279 292 273 258 241 255 261 262 263 263 265 265 266 266 266 266 267 268 269 268 265 260 254 251 250 250 248 245 244 241 240 239 236 232 231 231 229 225 218 211 212 214 212 212 213 212 210 214 218 211 208 211 213 215 215 218 224 230 232 229 219 198 190 195 195 193 192 189 189 187 187 187 188 193 196 202 211 206 201
234 222 221 232 241 233 200 254 294 282 300 178 186 283 281 270 252 254 259 267 275 270 254 257 258 259 261 263 267 269 270 269 268 268 268 269 269 267 266 262 258 254 250 248 245 243 242 240 240 238 235 232 230 230 229 225 218 212 213 215 216 217 216 212 211 215 216 212 213 218 219 218 223 230 229 231 232 218 199 188 190 196 196 191 186 185 188 190 188 186 187 193 196 199 205 207 205
216 65 199 202 189 200 204 193 229 279 327 262 182 224 278 279 247 246 254 256 275 282 274 266 257 258 264 269 274 276 275 274 271 270 269 270 270 269 267 265 260 255 250 247 244 243 242 240 240 238 235 233 230 229 227 224 220 214 212 212 217 223 220 214 216 217 215 217 222 223 220 221 230 238 232 226 220 203 190 189 193 195 192 187 185 186 191 193 190 187 189 193 196 199 201 205 208
352 92 105 139 153 173 159 168 223 328 326 274 175 164 262 280 229 131 276 248 261 271 269 269 264 270 277 280 287 287 283 277 270 266 266 266 268 267 265 262 257 253 249 247 245 244 243 242 241 238 234 233 229 227 226 222 219 215 211 211 215 218 217 219 225 224 219 221 226 222 219 223 230 235 229 216 204 192 188 191 195 193 188 186 188 189 192 195 192 191 194 196 196 198 200 201 207
138 140 99 89 83 73 96 203 187 104 281 261 164 165 247 288 250 133 108 225 234 254 263 270 280 290 291 294 300 295 286 279 268 258 255 255 256 254 253 251 248 247 245 244 244 243 242 242 241 237 232 232 228 225 223 220 216 213 210 212 216 217 218 221 224 222 219 220 220 217 218 224 230 232 222 208 196 189 189 192 194 191 187 188 191 191 193 195 195 196 199 200 199 199 200 199 202
143 144 102 92 84 66 81 38 81 209 262 226 157 176 212 289 268 152 158 203 219 239 256 270 283 292 288 298 308 301 290 280 262 242 239 242 245 244 245 247 246 244 242 240 238 238 240 240 239 236 231 229 227 224 221 218 214 211 210 213 216 218 220 218 217 217 219 217 215 217 222 227 232 229 216 204 195 190 189 192 192 190 190 192 193 194 195 196 197 200 201 202 203 202 202 202 203
151 148 131 125 126 133 134 138 151 230 250 172 143 188 206 245 250 147 166 266 254 241 250 265 284 293 280 283 293 295 292 280 257 237 238 243 252 255 256 258 255 251 247 241 237 236 237 238 237 235 230 227 226 224 220 218 215 212 212 213 214 217 218 216 217 223 223 219 217 219 223 227 228 222 211 203 196 191 190 192 192 191 193 194 195 196 197 197 199 201 203 205 206 205 204 205 206
216 161 161 191 204 196 226 203 180 234 242 46 32 221 223 244 258 276 272 270 258 247 245 257 273 281 279 278 276 276 276 272 264 256 255 256 262 265 265 265 263 258 254 246 239 236 236 236 236 233 229 227 226 224 221 218 216 214 213 213 214 218 218 216 222 230 227 222 219 220 224 224 221 216 208 202 196 192 192 192 192 193 195 196 198 198 198 199 201 203 206 207 207 207 207 207 208
198 178 173 198 196 209 233 199 191 264 248 38 8 177 241 266 276 262 255 256 255 252 251 256 265 273 276 277 275 272 268 264 262 263 267 271 273 273 271 269 265 260 255 247 240 238 236 235 235 232 228 227 227 225 222 218 216 214 214 214 214 217 217 215 221 227 224 221 221 225 230 224 218 216 210 202 196 194 193 193 194 196 197 198 199 200 200 201 203 206 208 209 208 209 209 209 208
195 186 174 204 198 211 232 203 226 260 128 79 300 197 228 253 314 242 254 275 275 267 260 258 261 265 269 273 275 274 269 267 268 267 269 274 278 280 276 270 264 260 255 248 242 240 238 235 234 231 228 227 225 223 222 218 215 214 214 215 215 215 216 216 220 222 221 221 222 227 233 227 220 219 214 204 198 196 195 195 197 199 200 201 201 202 202 202 204 207 209 209 209 208 209 208 206
193 85 195 231 222 200 246 311 220 10 10 203 206 241 241 252 296 270 256 278 275 268 268 262 258 259 263 269 272 272 272 277 279 272 270 275 278 278 273 267 263 258 253 247 242 240 238 235 233 231 229 229 225 222 222 218 215 216 215 215 215 215 218 218 219 223 222 218 218 222 229 229 222 219 217 209 202 199 197 198 200 201 202 203 203 204 204 204 206 208 209 208 208 208 208 207 207
160 165 199 229 327 111 171 245 82 92 267 247 201 249 267 283 282 254 227 245 249 251 264 259 256 259 262 265 266 268 274 285 283 274 274 275 273 267 263 262 261 257 254 250 245 243 241 238 236 232 230 231 226 223 223 219 217 217 215 215 215 215 218 218 218 223 221 214 214 218 222 227 222 218 219 214 205 201 200 201 203 203 203 204 204 205 206 207 208 209 209 208 207 208 207 207 209
135 186 187 143 14 7 206 235 190 189 247 254 212 245 262 267 269 230 160 235 245 246 250 250 255 259 261 263 264 268 274 279 278 279 280 271 265 264 260 257 257 257 257 255 250 247 245 242 240 236 233 233 228 223 223 221 219 217 215 214 214 215 217 216 217 220 215 212 215 217 219 224 221 218 220 217 209 203 203 204 205 205 205 204 205 207 208 208 209 209 208 207 207 207 207 210 211
61 203 167 139 225 209 188 212 223 220 233 246 240 254 259 241 239 244 216 221 232 240 239 241 249 251 253 259 263 268 273 275 273 269 262 255 260 267 263 256 254 254 254 253 249 245 244 242 242 239 236 236 233 226 224 222 220 218 216 214 214 216 216 217 220 216 210 213 218 220 222 223 220 218 220 218 211 205 205 207 207 207 207 205 206 208 209 209 209 209 208 206 206 206 208 212 215
24 304 187 213 263 223 191 185 221 233 227 242 261 271 262 241 216 219 231 224 219 229 231 231 238 244 252 258 264 272 277 274 257 218 204 228 246 257 264 260 254 251 251 250 247 244 242 241 242 241 239 238 233 227 225 223 221 220 216 213 215 216 215 220 223 213 209 215 220 223 227 223 220 219 220 218 212 208 208 209 208 208 207 207 208 209 210 210 209 209 209 208 207 207 209 212 216
180 199 195 191 187 298 273 221 184 251 237 246 267 272 269 258 181 191 218 216 211 218 225 229 234 245 254 259 265 276 277 248 194 192 192 193 219 249 266 265 258 253 250 248 246 245 242 241 242 240 239 239 234 227 225 224 222 220 217 214 216 217 217 223 222 211 211 219 221 227 231 222 219 220 220 218 213 210 211 211 211 211 208 208 210 210 211 211 210 209 209 208 208 208 209 212 215
186 197 196 198 182 158 218 218 169 257 253 236 239 267 270 266 134 186 208 202 206 211 215 231 239 244 253 261 264 268 260 209 192 200 194 169 160 260 264 264 264 262 260 256 252 249 244 241 241 239 239 240 237 230 227 225 223 221 218 216 217 217 219 223 218 211 215 221 223 230 230 220 218 220 220 218 215 212 213 213 213 213 211 210 212 213 213 211 211 210 209 208 208 207 208 211 213